{"data":{"norad_id":49469,"intl_designator":"2021-106A","name":"GLOBAL-14","alt_names":[],"object_type":"PAYLOAD","status":"ACTIVE","operator":null,"country":"US","launch_date":"2021-11-18","launch_site_code":"RLLB","launch_vehicle":null,"mission":null,"orbit_class":"UNKNOWN","rcs_meters":null,"size_class":null,"mass_kg":null,"dimensions":null,"purposes":[],"wikipedia_slug":null,"has_3d_model":false,"image_url":null,"decayed_at":null,"tle_current":{"epoch":"2026-09-20T22:08:44.380896Z","epoch_age_seconds":70889,"freshness":"FRESH","line1":"1 49469U 21106A   26263.92273589  .00021750  00000+0  31691-3 0  9993","line2":"2 49469  42.0027  80.2505 0019194 329.9906  29.9838 15.55023198273012","mean_motion":15.55023198,"eccentricity":0.0019194,"inclination_deg":42.0027,"raan_deg":80.2505,"arg_perigee_deg":329.9906,"mean_anomaly_deg":29.9838,"bstar":0.00031691,"rev_number":27301,"period_min":92.603120124,"perigee_km":389.07123800149,"apogee_km":415.09915496935,"semimajor_km":6780.2221964854,"source":"CELESTRAK","updated_at":"2026-09-21T09:00:08.095828Z"}}}